Beaufort, SC

2:05 PM EDT on September 27, 2016 (GMT -0400)
Beaufort Marine Corps Air Station

Weather History for KNBC - June, 2012

Change the Weather History Date:

Friday, June 29, 2012

  Actual Average Record
Temperature  
Mean Temperature 86 °F -  
Max Temperature 98 °F 89 °F 105 °F (1959)
Min Temperature 75 °F 71 °F 61 °F (1955)
Cooling Degree Days 22    
Growing Degree Days 36 (Base 50)    
Moisture  
Dew Point 70 °F    
Average Humidity 61    
Maximum Humidity 79    
Minimum Humidity 39    
Precipitation  
Precipitation 0.00 in - - ()
Sea Level Pressure  
Sea Level Pressure 29.89 in    
Wind  
Wind Speed 7 mph (WSW)    
Max Wind Speed 12 mph    
Max Gust Speed -    
Visibility 10 miles    
Events      
Averages and records for this station are not official NWS values.
T = Trace of Precipitation, MM = Missing Value Source: NWS Daily Summary

Daily Weather History Graph

Daily Weather History Graph

Search for Another Location

Airport or City:

Trip Planner

Search our weather history database for the weather conditions in past years. The results will help you decide how hot, cold, wet, or windy it might be!

Date:

Astronomy

Jun. 29, 2012 Rise Set
Actual Time 6:18 AM EDT 8:34 PM EDT
Civil Twilight 5:50 AM EDT 9:02 PM EDT
Nautical Twilight 5:15 AM EDT 9:37 PM EDT
Astronomical Twilight 4:37 AM EDT 10:15 PM EDT
Moon 4:23 PM EDT (6/29) 2:20 AM EDT (6/29)
Length of Visible Light 15h 12m
Length of Day
14h 15m
Waxing Gibbous, 77% of the Moon is Illuminated
Jun 29
Waxing Gibbous
Jul 3
Full
Jul 10
Last Quarter
Jul 19
New
Jul 26
First Quarter

Hourly Weather History & Observations

Time (EDT) Temp. Heat Index Dew Point Humidity Pressure Visibility Wind Dir Wind Speed Gust Speed Precip Events Conditions
12:56 AM 77.0 °F - 69.1 °F 76% 29.97 in 10.0 mi SSW 5.8 mph - N/A   Clear
1:56 AM 75.9 °F - 66.9 °F 74% 29.96 in 10.0 mi SSW 6.9 mph - N/A   Clear
2:56 AM 75.9 °F - 66.0 °F 71% 29.95 in 10.0 mi SW 5.8 mph - N/A   Clear
3:56 AM 75.9 °F - 64.9 °F 69% 29.93 in 10.0 mi SW 11.5 mph - N/A   Clear
4:56 AM 77.0 °F - 64.0 °F 64% 29.92 in 10.0 mi WSW 11.5 mph - N/A   Clear
5:56 AM 75.9 °F - 63.0 °F 64% 29.92 in 10.0 mi WSW 11.5 mph - N/A   Clear
6:56 AM 75.9 °F - 64.0 °F 67% 29.93 in 10.0 mi WSW 9.2 mph - N/A   Clear
7:56 AM 78.1 °F - 64.0 °F 62% 29.94 in 10.0 mi West 9.2 mph - N/A   Clear
8:56 AM 81.0 °F 83.0 °F 66.0 °F 60% 29.94 in 10.0 mi West 8.1 mph - N/A   Clear
9:56 AM 84.0 °F 86.5 °F 66.9 °F 56% 29.93 in 10.0 mi West 11.5 mph - N/A   Clear
10:56 AM 87.1 °F 90.6 °F 68.0 °F 53% 29.92 in 10.0 mi West 10.4 mph - N/A   Clear
11:56 AM 90.0 °F 95.4 °F 70.0 °F 52% 29.91 in 10.0 mi WSW 5.8 mph - N/A   Clear
12:56 PM 91.9 °F 98.4 °F 71.1 °F 50% 29.91 in 10.0 mi Calm Calm - N/A   Clear
1:56 PM 93.9 °F 100.3 °F 70.0 °F 46% 29.89 in 10.0 mi Variable 4.6 mph - N/A   Clear
2:56 PM 97.0 °F 104.8 °F 71.1 °F 43% 29.87 in 10.0 mi WSW 5.8 mph - N/A   Clear
3:56 PM 97.0 °F 102.8 °F 69.1 °F 40% 29.86 in 10.0 mi West 5.8 mph - N/A   Clear
4:56 PM 98.1 °F 104.4 °F 69.1 °F 39% 29.84 in 10.0 mi West 4.6 mph - N/A   Clear
5:56 PM 97.0 °F 102.2 °F 68.0 °F 39% 29.83 in 10.0 mi West 4.6 mph - N/A   Clear
6:56 PM 96.1 °F 101.6 °F 69.1 °F 41% 29.83 in 10.0 mi West 4.6 mph - N/A   Clear
7:56 PM 90.0 °F 105.8 °F 79.0 °F 70% 29.82 in 10.0 mi Calm Calm - N/A   Clear
8:56 PM 86.0 °F 99.3 °F 79.0 °F 79% 29.82 in 10.0 mi Calm Calm - N/A   Clear
9:05 PM 86.0 °F 99.3 °F 78.8 °F 79% 29.81 in 9.0 mi Calm Calm - N/A   Partly Cloudy
9:56 PM 84.0 °F 93.7 °F 77.0 °F 79% 29.83 in 10.0 mi SSW 4.6 mph - N/A   Clear
10:56 PM 82.9 °F 90.2 °F 75.0 °F 77% 29.85 in 10.0 mi SW 4.6 mph - N/A   Clear
11:56 PM 82.9 °F 89.4 °F 73.9 °F 74% 29.86 in 10.0 mi WSW 6.9 mph - N/A   Clear